This is the latest recevied weather packets stored in our database for station/object N0QV. If no packets are shown the sender has not sent any weather packets the latest 10 day(s).
| Time | Temp. | Humidity | Pressure | Rain* | Wind** | Luminosity | Snow |
|---|---|---|---|---|---|---|---|
| 1788091825 | 20.56° C | 92% | 1008.1 hPa | 0 mm | - | 23 W/m² | - |
| 1788091520 | 20.56° C | 93% | 1008.4 hPa | 0 mm | - | 17 W/m² | - |
| 1788091217 | 20.56° C | 93% | 1008.5 hPa | 0 mm | - | 11 W/m² | - |
| 1788090913 | 20.56° C | 93% | 1008.5 hPa | 0 mm | - | 7 W/m² | - |
| 1788090608 | 20.56° C | 93% | 1008.4 hPa | 0 mm | - | 4 W/m² | - |
| 1788090305 | 20.56° C | 93% | 1008.7 hPa | 0 mm | - | 2 W/m² | - |
| 1788090004 | 20.56° C | 93% | 1008.6 hPa | 0 mm | - | 1 W/m² | - |
| 1788089699 | 20.56° C | 93% | 1008.3 hPa | 0 mm | - | 0 W/m² | - |
| 1788089394 | 20.56° C | 93% | 1008.1 hPa | 0 mm | - | 0 W/m² | - |
| 1788089090 | 20.56° C | 93% | 1008.1 hPa | 0 mm | - | 0 W/m² | - |
| 1788088786 | 20.56° C | 93% | 1008.4 hPa | 0 mm | - | 0 W/m² | - |
| 1788088482 | 20.56° C | 93% | 1008.1 hPa | 0 mm | - | 0 W/m² | - |
| 1788088177 | 20.56° C | 93% | 1008.2 hPa | 0 mm | - | 0 W/m² | - |
| 1788087872 | 20.56° C | 93% | 1008.3 hPa | 0 mm | - | 0 W/m² | - |
| 1788087572 | 20.56° C | 93% | 1008.4 hPa | 0 mm | - | 0 W/m² | - |
| 1788087268 | 20.56° C | 93% | 1008.2 hPa | 0 mm | - | 0 W/m² | - |
| 1788086964 | 20.56° C | 93% | 1008.3 hPa | 0 mm | - | 0 W/m² | - |
| 1788086660 | 20.56° C | 93% | 1008.6 hPa | 0 mm | - | 0 W/m² | - |
| 1788086360 | 20.56° C | 93% | 1008.5 hPa | 0 mm | - | 0 W/m² | - |
| 1788086056 | 20.56° C | 93% | 1008.3 hPa | 0 mm | - | 0 W/m² | - |
| 1788085754 | 20.56° C | 93% | 1008.6 hPa | 0 mm | - | 0 W/m² | - |
| 1788085449 | 20.56° C | 93% | 1008.5 hPa | 0 mm | - | 0 W/m² | - |
| 1788085146 | 20.56° C | 93% | 1008.5 hPa | 0 mm | - | 0 W/m² | - |
| 1788084841 | 20.56° C | 93% | 1008.6 hPa | 0 mm | - | 0 W/m² | - |
| 1788084540 | 20.56° C | 93% | 1008.7 hPa | 0 mm | - | 0 W/m² | - |
* Rain latest hour (hover to see other rain measurements)
** Current wind speed in m/s (hover to see current wind gust speed)